Location: Newark
(41.6500°N, 71.4833°W)
Time: 03:27:47
(UTC+00:00)

A-11 Canister half - Pass Details

Date: 29 January 2020
Orbit: 1517 x 1683 km, 47.2° (Epoch: 16 February)

Event Time Altitude Azimuth Distance (km) Brightness Sun altitude
Rises 05:10:06 0° 263° (W) 4,739 - -66.3°
Reaches altitude 10° 05:13:15 10° 266° (W) 3,736 - -66.2°
Maximum altitude 05:22:37 67° 349° (N) 1,640 - -65.9°
Drops below altitude 10° 05:31:50 10° 71° (ENE) 3,680 - -65.4°
Exits shadow 05:34:53 - 75° (ENE) 4,659 11.7 -65.2°
Sets 05:34:54 0° 75° (ENE) 4,664 11.7 -65.2°
